Vertical_Velocity
8 20 22 15 -14 0 10 -1 -1 2 5 -2 -0 -0 -3 1 1 -1 0 -0 0 -1 -0 -0 0 -2 -2 1 -2 -0 -1 -3 -1 -1 -3 -1 -1 -1 -0 -5 -4 -1 -4 -8
2 30 23 1 -11 -4 -8 -4 -2 4 4 -1 1 -2 -0 -0 1 -1 1 -0 -0 0 0 -3 -2 0 -1 2 -1 -0 0 -1 -1 0 -6 -3 -1 -1 -0 -1 -3 -2 -5 -9
-18 10 20 -3 -11 3 8 -7 -1 5 4 1 0 0 0 1 0 0 0 1 -1 -0 0 -0 -1 0 0 -1 0 2 -3 -1 -6 -8 -8 -4 1 1 0 -3 -3 -2 -4 -0
23 11 15 4 -7 1 5 -0 -1 -10 0 1 1 0 -2 0 0 -0 1 1 -0 -1 0 0 0 0 0 -1 0 -0 -4 -2 -1 -0 0 -1 -0 -1 -0 -1 -3 -6 -5 -1
13 3 18 -2 4 1 3 -10 -6 6 -0 2 4 -0 -2 -2 3 -5 0 -1 -1 -0 -2 0 -1 -2 -1 -4 1 -0 -1 -1 -1 -1 0 -0 -0 -0 0 -0 -0 1 1 -3
-3 16 10 -5 0 1 -6 3 1 0 1 1 -2 -4 -1 -1 -3 1 1 -0 -3 -2 0 1 1 1 2 -1 -5 -0 -2 -2 -2 -2 -0 -1 -3 -5 -1 -1 -0 -5 -1 -9
1 7 11 -3 -6 6 -2 -3 -5 -2 -0 -2 -3 -0 -1 -0 0 -5 1 -2 -5 -3 1 -0 -1 -1 0 -0 1 -2 -1 -1 -1 -1 -3 -5 -18 -0 -1 -2 -1 0 1 0
8 9 7 -3 -3 1 1 -1 -4 -2 0 -2 0 1 -1 1 3 -2 -2 1 -0 -1 -0 -2 -2 -3 -2 1 1 -1 -2 -2 -1 -2 -1 -8 1 -2 -0 -3 1 0 -1 1
2 6 8 -3 4 2 1 0 2 1 -11 -1 3 -2 -2 -2 0 -1 1 -0 2 -2 -1 -1 -1 -2 -3 2 -1 -0 -0 -2 -6 1 -1 -1 -3 -1 1 -2 -5 1 -2 1
11 16 5 4 1 1 3 -2 1 2 -9 0 4 -1 -4 1 1 -2 1 0 -1 0 -0 -1 -1 -1 -3 -3 -1 -0 -0 1 -3 -0 -0 -7 -2 0 0 -5 -10 3 -0 1
15 4 4 4 1 2 6 -3 2 1 -6 3 2 -2 -1 0 1 -3 0 -5 -3 -2 -3 -0 -2 -0 -3 -1 -3 -4 -5 -3 -1 1 0 -6 0 -3 -2 -5 5 2 0 1
4 -2 7 5 -7 4 3 2 2 2 -9 1 4 -0 2 1 -0 -7 -1 0 0 -0 -3 -1 -1 -0 -1 -2 -2 -1 -5 -8 -7 -10 -9 -1 3 -3 3 0 -2 -0 -1 -1
-4 4 14 0 -0 1 3 1 -4 -1 -11 1 -0 -1 -0 1 1 2 -9 -1 -1 -1 -1 -1 -0 -1 -1 -1 -2 0 -0 0 -2 -5 0 2 1 1 0 -3 -4 -3 1 2
-3 4 3 -5 -2 4 1 -3 3 3 -3 -9 3 -0 -0 2 -0 -0 -2 -6 -4 -2 -1 -1 -1 -1 -0 -1 -3 -2 -6 -2 -1 -1 -0 3 3 -0 -2 -2 1 2 0 -2
0 4 7 -1 3 -5 -2 3 0 3 8 -7 0 5 0 2 0 0 1 -0 -3 -0 -2 -2 -1 1 -3 -0 -2 -0 -1 -4 -4 -5 -3 -1 -1 0 1 3 3 2 -2 -3
-2 2 4 -10 -1 7 -4 -4 0 3 2 -13 -2 2 1 1 1 -0 -2 -2 -2 -2 -1 0 1 1 -2 -1 -0 -2 1 0 -1 -5 -2 0 1 2 1 -9 -6 -4 -2 -1
-6 -4 -0 1 -2 3 3 -1 1 2 2 -7 2 1 1 1 -1 -1 -3 1 -3 -2 0 -1 -0 -1 -1 -0 -0 -1 1 0 0 1 -0 2 2 -2 -0 -2 1 -0 0 3
-4 -2 -0 0 4 2 -1 1 3 3 1 -2 -3 3 -0 -0 -1 -2 -0 -3 -0 -2 0 -0 -1 0 -0 -0 -5 2 1 -1 1 -0 -1 0 1 0 -3 -1 -0 -0 3 -0
-11 -3 6 -3 -2 -1 0 -1 1 1 -0 -5 -2 -5 -1 0 2 -0 -3 1 -1 -1 -0 -0 -0 -1 -2 -7 -2 -1 -1 -2 1 -1 -0 -1 -1 -2 -0 -1 -0 -1 -2 0
-0 5 -4 -1 -7 5 -1 -6 -2 0 -1 0 -3 2 -1 -1 1 2 -3 0 -0 0 -2 -0 1 -3 -5 -0 1 1 0 -1 -1 -1 -1 -1 -2 -0 -0 -1 -3 1 1 0
-2 -2 -5 5 2 -0 -1 -1 -2 0 -2 0 2 -3 -3 0 -4 -1 -0 -1 0 1 -3 -1 -1 -3 -3 -1 -0 0 -1 -1 -1 -1 0 -3 -2 -2 -3 -1 -0 -0 -1 -0
-3 -7 -6 -1 -3 -1 -5 -0 -2 -1 -3 1 -4 -2 -0 1 2 -3 2 -1 1 -1 -2 3 -0 -7 1 -1 -0 1 -2 -2 -2 -1 -0 -2 -1 -1 0 -1 -2 -2 0 0
-6 -8 0 -0 2 -2 -3 -1 -1 0 -1 1 3 0 -4 0 -2 -0 -1 0 -3 -0 2 -3 -6 -1 2 1 -1 -1 -1 -3 -2 -0 -1 -1 -0 -0 -0 -2 -1 -2 -1 -1
-4 -3 -0 -5 -1 -2 -3 -2 -2 1 0 1 -4 -0 -4 0 -1 -1 -2 -1 0 2 2 -6 -3 -4 -0 -0 -0 -1 -4 -3 -2 -1 -0 -1 1 -1 -4 -2 2 -1 -0 -1
-1 -1 -3 -1 -1 1 1 0 -1 1 4 -5 -1 -2 -4 1 -2 -1 -1 3 -0 -3 -6 -3 -1 -1 -1 -1 -1 -1 -2 -1 -2 -1 -1 -0 -0 0 0 -1 -2 -2 -2 -0
-3 -2 -2 3 -5 1 0 3 1 1 1 -2 -1 -1 -2 -0 -3 -1 -3 -1 -4 -7 -2 -2 -1 -1 -1 -2 -0 -0 -1 -1 -1 -1 -0 -0 0 -0 0 0 -3 0 -0 -1
-1 -2 5 -0 -1 -2 -1 -1 -1 1 -0 -1 -2 -3 -6 -3 -1 -0 -1 -4 -5 -3 -1 -0 -0 -1 -0 -1 -1 1 0 -1 -1 0 1 -2 1 2 1 -0 3 -3 -0 -2
Height
1402 1404 1408 1415 1429 1440 1449 1453 1461 1466 1469 1474 1473 1471 1466 1461 1462 1464 1463 1463 1462 1463 1464 1468 1469 1473 1471 1471 1471 1475 1476 1488 1495 1493 1491 1488 1488 1488 1490 1510 1500 1509 1512 1498
1395 1398 1399 1408 1420 1431 1438 1448 1458 1464 1465 1467 1469 1465 1459 1459 1461 1463 1463 1462 1462 1462 1463 1469 1468 1472 1472 1470 1470 1472 1474 1490 1498 1496 1494 1490 1490 1487 1487 1491 1499 1509 1515 1500
1387 1387 1394 1402 1414 1427 1435 1442 1454 1461 1463 1461 1462 1458 1457 1459 1459 1460 1460 1460 1461 1462 1463 1463 1470 1473 1472 1472 1473 1473 1471 1482 1493 1504 1490 1489 1493 1485 1485 1493 1515 1496 1498 1484
1377 1381 1391 1398 1410 1422 1429 1433 1440 1443 1451 1455 1457 1456 1451 1456 1459 1459 1459 1460 1461 1461 1463 1464 1471 1474 1475 1475 1475 1474 1477 1491 1497 1484 1482 1485 1485 1485 1485 1494 1486 1495 1484 1485
1377 1381 1387 1396 1407 1417 1424 1427 1431 1438 1440 1443 1451 1455 1448 1451 1455 1457 1459 1461 1460 1461 1469 1469 1468 1469 1473 1474 1477 1479 1481 1494 1490 1487 1484 1485 1487 1486 1485 1484 1484 1484 1483 1483
1376 1380 1386 1395 1403 1412 1419 1422 1426 1430 1435 1438 1446 1446 1445 1448 1451 1457 1458 1458 1461 1466 1470 1470 1470 1471 1471 1473 1476 1480 1483 1493 1503 1504 1491 1490 1494 1483 1480 1478 1476 1478 1485 1474
1371 1378 1384 1392 1401 1409 1414 1417 1423 1427 1435 1437 1440 1440 1443 1447 1450 1454 1459 1458 1463 1470 1470 1470 1470 1470 1470 1471 1474 1475 1483 1489 1495 1502 1497 1509 1479 1472 1471 1472 1472 1473 1473 1473
1366 1376 1383 1391 1400 1407 1413 1416 1422 1424 1433 1435 1438 1440 1445 1448 1451 1455 1459 1462 1466 1468 1470 1473 1476 1478 1475 1476 1477 1478 1479 1489 1495 1502 1507 1486 1476 1474 1472 1471 1473 1470 1471 1473
1365 1374 1383 1391 1400 1406 1413 1417 1421 1423 1427 1439 1439 1441 1445 1451 1456 1459 1462 1464 1465 1467 1470 1471 1477 1483 1480 1483 1481 1478 1478 1481 1491 1495 1503 1490 1475 1473 1472 1472 1484 1474 1473 1475
1365 1374 1383 1391 1399 1404 1412 1417 1421 1422 1428 1437 1438 1441 1446 1447 1452 1459 1462 1464 1466 1467 1472 1477 1481 1476 1470 1482 1485 1485 1486 1485 1491 1496 1490 1485 1473 1473 1473 1481 1488 1478 1476 1477
1369 1375 1384 1393 1399 1405 1411 1416 1420 1422 1429 1439 1440 1442 1444 1448 1450 1457 1461 1465 1467 1470 1475 1472 1476 1477 1472 1471 1475 1478 1481 1487 1489 1489 1493 1496 1476 1477 1480 1482 1479 1479 1479 1480
1373 1378 1389 1395 1400 1406 1411 1416 1420 1423 1426 1442 1444 1445 1447 1449 1451 1454 1458 1462 1462 1467 1474 1477 1475 1473 1474 1475 1479 1471 1478 1475 1480 1481 1484 1476 1477 1478 1480 1479 1480 1481 1480 1479
1375 1382 1391 1396 1401 1407 1412 1416 1420 1424 1432 1443 1447 1449 1451 1451 1453 1454 1457 1462 1462 1465 1467 1471 1474 1472 1476 1477 1477 1472 1470 1469 1472 1472 1473 1473 1474 1476 1476 1476 1477 1478 1477 1475
1376 1385 1392 1398 1403 1410 1415 1418 1422 1424 1429 1440 1454 1453 1453 1454 1455 1456 1456 1457 1463 1466 1468 1470 1473 1475 1474 1476 1475 1475 1471 1469 1471 1473 1475 1474 1473 1474 1474 1473 1473 1472 1472 1471
1380 1388 1393 1400 1405 1411 1416 1421 1423 1424 1428 1439 1453 1455 1457 1457 1458 1458 1459 1460 1463 1466 1469 1472 1474 1474 1475 1474 1474 1474 1467 1468 1472 1473 1472 1471 1471 1472 1472 1472 1471 1470 1468 1467
1383 1390 1397 1405 1411 1415 1420 1426 1426 1425 1425 1430 1453 1461 1461 1461 1461 1461 1462 1463 1466 1468 1470 1472 1473 1474 1477 1479 1477 1467 1466 1467 1468 1469 1470 1470 1471 1472 1471 1469 1468 1465 1464 1461
1387 1395 1401 1406 1411 1416 1418 1420 1422 1426 1426 1429 1451 1460 1462 1463 1464 1465 1466 1466 1467 1470 1471 1473 1473 1474 1475 1477 1476 1465 1466 1467 1468 1468 1469 1469 1469 1468 1466 1465 1463 1462 1460 1459
1388 1398 1403 1409 1414 1419 1419 1420 1424 1426 1427 1430 1446 1460 1463 1464 1465 1468 1469 1469 1470 1472 1474 1475 1475 1475 1475 1475 1463 1464 1465 1466 1467 1467 1468 1468 1468 1467 1464 1462 1459 1459 1456 1455
1391 1401 1407 1414 1418 1421 1423 1425 1427 1427 1431 1432 1441 1450 1458 1463 1465 1467 1470 1470 1472 1475 1474 1475 1476 1473 1471 1460 1459 1461 1464 1465 1467 1467 1466 1466 1466 1464 1462 1460 1459 1457 1456 1453
1394 1405 1411 1416 1419 1422 1426 1430 1428 1429 1429 1432 1440 1446 1455 1459 1461 1467 1470 1470 1471 1471 1474 1475 1473 1465 1456 1456 1457 1460 1462 1464 1465 1464 1464 1463 1462 1461 1460 1458 1456 1454 1452 1451
1395 1403 1409 1414 1418 1422 1425 1426 1428 1430 1434 1434 1440 1444 1449 1457 1459 1463 1466 1469 1470 1470 1474 1474 1471 1465 1451 1451 1456 1458 1461 1462 1462 1462 1461 1460 1459 1457 1456 1454 1453 1451 1449 1447
1395 1401 1408 1416 1419 1421 1425 1431 1430 1429 1433 1435 1438 1445 1448 1453 1456 1460 1465 1467 1468 1470 1472 1471 1468 1452 1448 1450 1454 1456 1457 1459 1459 1459 1459 1457 1456 1454 1453 1451 1449 1449 1448 1446
1395 1402 1407 1410 1418 1423 1422 1430 1429 1429 1428 1430 1434 1442 1446 1452 1456 1459 1462 1464 1471 1466 1469 1464 1457 1447 1448 1450 1451 1453 1454 1455 1456 1457 1456 1455 1453 1451 1450 1448 1445 1444 1443 1442
1393 1395 1407 1408 1417 1411 1406 1407 1408 1414 1419 1424 1431 1438 1443 1449 1454 1458 1465 1461 1461 1463 1468 1462 1446 1444 1447 1449 1450 1450 1451 1452 1453 1453 1453 1452 1450 1448 1446 1444 1443 1440 1439 1438
1389 1392 1401 1405 1400 1401 1403 1405 1408 1412 1418 1423 1431 1437 1441 1447 1453 1456 1457 1461 1460 1458 1456 1447 1441 1443 1445 1447 1448 1448 1449 1449 1449 1450 1449 1448 1447 1444 1440 1439 1438 1436 1435 1434
1389 1394 1399 1399 1399 1404 1405 1406 1409 1413 1418 1424 1429 1436 1444 1449 1449 1456 1463 1460 1459 1447 1440 1439 1440 1442 1444 1446 1447 1446 1446 1446 1446 1446 1445 1444 1441 1439 1436 1433 1432 1430 1430 1429
1390 1394 1392 1394 1396 1398 1402 1405 1409 1414 1416 1421 1427 1436 1443 1444 1453 1453 1448 1448 1439 1434 1435 1437 1439 1441 1442 1443 1445 1444 1443 1442 1442 1441 1440 1439 1436 1433 1430 1429 1428 1427 1426 1425